Regional Weather Roundup
Issued by NWS

Home | Current Version | Previous Version | Graphics & Text | Print | Product List | Glossary On
Versions: 1 2 3 4 5 6 7 8 9 10 11 12 13 14 15 16 17 18 19 20 21 22 23 24 25 26 27 28 29 30 31 32 33 34 35 36 37 38 39 40 41 42 43 44 45 46 47 48 49 50
000
ASUS44 KMEG 031800
RWRTN
TENNESSEE HOURLY STATE WEATHER ROUNDUP
NATIONAL WEATHER SERVICE MEMPHIS TN
1200 PM CST SAT DEC 03 2016

TNZ002-004-019-021-049-052-054-088>092-031900-
WEST TENNESSEE

CITY           SKY/WX    TMP DP  RH WIND       PRES   REMARKS
MEMPHIS INTL   LGT RAIN  47  36  65 SE7       30.30F
NWS MEMPHIS      N/A     47 N/A N/A MISG        N/A
JACKSON        NOT AVBL
DYERSBURG      CLOUDY   N/A N/A N/A E8        30.30F
PARIS          SUNNY     39  30  70 NE8       30.33F WCI  34
$$

TNZ008-025-027-028-033-062-065-066-031900-
NORTH MIDDLE TENNESSEE

CITY           SKY/WX    TMP DP  RH WIND       PRES   REMARKS
NASHVILLE      CLOUDY    45  30  55 VRB3      30.34F
CLARKSVILLE    CLOUDY    42  31  64 NE5       30.35F
SMYRNA         CLOUDY    44  31  60 NE7       30.34F
CROSSVILLE     CLOUDY    40  29  64 VRB3      30.28F
$$

TNZ061-075-076-078-094-096-097-031900-
SOUTH MIDDLE TENNESSEE

CITY           SKY/WX    TMP DP  RH WIND       PRES   REMARKS
TULLAHOMA      SUNNY     43  30  61 N6        30.28F
WINCHESTER     SUNNY     45  34  65 N3        30.28F
SHELBYVILLE    SUNNY     45  36  70 NE5       30.31F
$$

TNZ017-018-042-046-047-031900-
NORTHEAST TENNESSEE

CITY           SKY/WX    TMP DP  RH WIND       PRES   REMARKS
TRI CITIES     CLOUDY    41  29  62 CALM      30.28F
$$

TNZ012-013-036-069-073-074-031900-
CENTRAL EAST TENNESSEE

CITY           SKY/WX    TMP DP  RH WIND       PRES   REMARKS
KNOXVILLE      CLOUDY    44  31  60 NE8       30.29S
OAK RIDGE      CLOUDY    45  30  55 NE6       30.31F
GATLINBURG     SUNNY     43  30  61 CALM      30.29S
$$

TNZ083-085-099-031900-
SOUTHEAST TENNESSEE

CITY           SKY/WX    TMP DP  RH WIND       PRES   REMARKS
CHATTANOOGA    CLOUDY    47  32  56 N9        30.29F
$$

SKY/WX REPORTED AS FAIR MEANS FEW OR NO CLOUDS BELOW
12 THOUSAND FEET.




USA.gov is the U.S. government's official web portal to all federal, state and local government web resources and services.